Champaign, IL

1:20 AM CST on January 20, 2018 (GMT -0600)
Univ Of Illinois-Willard

Weather History for KCMI - March, 2013

Change the Weather History Date:

Sunday, March 31, 2013

  Actual Average Record
Temperature  
Mean Temperature 51 °F 46 °F  
Max Temperature 62 °F 58 °F 75 °F (2006)
Min Temperature 39 °F 35 °F 27 °F (2003)
Degree Days  
Heating Degree Days 14 19  
Month to date heating degree days 935 756  
Since 1 July heating degree days 5096 5258  
Cooling Degree Days 0 0  
Month to date cooling degree days 0 1  
Year to date cooling degree days 0 1  
Growing Degree Days 2 (Base 50)    
Moisture  
Dew Point 42 °F    
Average Humidity 76    
Maximum Humidity 100    
Minimum Humidity 51    
Precipitation  
Precipitation T in 0.11 in 0.64 in (2008)
Month to date precipitation 0.77 2.75  
Year to date precipitation 5.83 6.82  
Sea Level Pressure  
Sea Level Pressure 29.85 in    
Wind  
Wind Speed 13 mph (West)    
Max Wind Speed 24 mph    
Max Gust Speed 30 mph    
Visibility 6 miles    
Events Rain    
T = Trace of Precipitation, MM = Missing Value Source: NWS Daily Summary

Daily Weather History Graph

Daily Weather History Graph

Search for Another Location

Airport or City:

Trip Planner

Search our weather history database for the weather conditions in past years. The results will help you decide how hot, cold, wet, or windy it might be!

Date:

Astronomy

Mar. 31, 2013 Rise Set
Actual Time 6:38 AM CDT 7:16 PM CDT
Civil Twilight 6:10 AM CDT 7:44 PM CDT
Nautical Twilight 5:38 AM CDT 8:16 PM CDT
Astronomical Twilight 5:05 AM CDT 8:49 PM CDT
Moon No Moon Rise 9:25 AM CDT (3/31)
Length of Visible Light 13h 33m
Length of Day
12h 38m
Waning Gibbous, 77% of the Moon is Illuminated
Mar 31
Waning Gibbous
Apr 2
Last Quarter
Apr 10
New
Apr 18
First Quarter
Apr 25
Full

Hourly Weather History & Observations

Time (CDT) Temp. Windchill Dew Point Humidity Pressure Visibility Wind Dir Wind Speed Gust Speed Precip Events Conditions
12:42 AM 46.4 °F 41.5 °F 42.8 °F 87% 29.90 in 7.0 mi WSW 10.4 mph - 0.00 in Rain Light Rain
12:53 AM 46.0 °F 41.9 °F 43.0 °F 89% 29.90 in 6.0 mi WSW 8.1 mph - 0.00 in Rain Light Rain
1:11 AM 44.6 °F 40.2 °F 42.8 °F 93% 29.88 in 6.0 mi WSW 8.1 mph - 0.00 in   Overcast
1:53 AM 45.0 °F 41.2 °F 43.0 °F 93% 29.88 in 4.0 mi WSW 6.9 mph - 0.00 in   Overcast
2:53 AM 45.0 °F 41.8 °F 43.0 °F 93% 29.85 in 3.0 mi SW 5.8 mph - N/A   Overcast
3:32 AM 44.6 °F 40.2 °F 42.8 °F 93% 29.84 in 5.0 mi WSW 8.1 mph - N/A   Overcast
3:53 AM 45.0 °F 41.2 °F 43.0 °F 93% 29.84 in 4.0 mi WSW 6.9 mph - N/A   Overcast
4:19 AM 44.6 °F 40.2 °F 42.8 °F 93% 29.83 in 4.0 mi WSW 8.1 mph - N/A   Overcast
4:29 AM 44.6 °F 40.2 °F 42.8 °F 93% 29.83 in 2.5 mi WSW 8.1 mph - N/A   Overcast
4:42 AM 44.6 °F 40.7 °F 42.8 °F 93% 29.82 in 1.8 mi West 6.9 mph - N/A   Overcast
4:53 AM 45.0 °F 41.2 °F 43.0 °F 93% 29.84 in 1.5 mi West 6.9 mph - N/A   Overcast
5:18 AM 44.6 °F 39.7 °F 44.6 °F 100% 29.83 in 2.0 mi West 9.2 mph - N/A   Overcast
5:25 AM 44.6 °F 39.2 °F 44.6 °F 100% 29.83 in 3.0 mi West 10.4 mph - N/A   Overcast
5:53 AM 45.0 °F 39.7 °F 44.1 °F 97% 29.84 in 3.0 mi West 10.4 mph - N/A   Overcast
6:23 AM 44.6 °F 39.2 °F 42.8 °F 93% 29.84 in 3.0 mi WNW 10.4 mph - N/A   Overcast
6:53 AM 45.0 °F 40.6 °F 43.0 °F 93% 29.84 in 3.0 mi WNW 8.1 mph - N/A   Overcast
7:04 AM 44.6 °F 40.2 °F 42.8 °F 93% 29.83 in 2.0 mi WNW 8.1 mph - N/A   Overcast
7:53 AM 46.0 °F 41.0 °F 44.1 °F 93% 29.86 in 2.5 mi West 10.4 mph - N/A   Overcast
8:00 AM 46.4 °F 41.9 °F 44.6 °F 93% 29.85 in 3.0 mi West 9.2 mph 18.4 mph N/A   Mostly Cloudy
8:53 AM 46.9 °F - 44.1 °F 90% 29.86 in 3.0 mi West 10.4 mph - N/A   Partly Cloudy
9:51 AM 50.0 °F - 44.6 °F 82% 29.85 in 6.0 mi WNW 16.1 mph - N/A   Haze
9:53 AM 50.0 °F - 45.0 °F 83% 29.86 in 6.0 mi West 12.7 mph 21.9 mph N/A   Haze
10:28 AM 51.8 °F - 44.6 °F 76% 29.85 in 7.0 mi WNW 16.1 mph - N/A   Overcast
10:53 AM 52.0 °F - 44.1 °F 74% 29.86 in 8.0 mi WNW 13.8 mph 20.7 mph N/A   Mostly Cloudy
11:16 AM 53.6 °F - 44.6 °F 72% 29.85 in 8.0 mi West 11.5 mph - N/A   Scattered Clouds
11:53 AM 55.9 °F - 44.1 °F 64% 29.85 in 9.0 mi WNW 12.7 mph 21.9 mph N/A   Scattered Clouds
12:53 PM 59.0 °F - 44.1 °F 58% 29.82 in 10.0 mi WNW 13.8 mph 20.7 mph N/A   Scattered Clouds
1:53 PM 60.1 °F - 44.1 °F 55% 29.81 in 10.0 mi WNW 17.3 mph 23.0 mph N/A   Scattered Clouds
2:53 PM 61.0 °F - 43.0 °F 52% 29.80 in 10.0 mi West 19.6 mph 27.6 mph N/A   Scattered Clouds
3:53 PM 61.0 °F - 43.0 °F 52% 29.79 in 10.0 mi West 18.4 mph - 0.00 in   Mostly Cloudy
4:53 PM 57.0 °F - 43.0 °F 59% 29.80 in 10.0 mi West 17.3 mph - 0.00 in Rain Light Rain
5:53 PM 55.9 °F - 42.1 °F 60% 29.81 in 10.0 mi West 19.6 mph - 0.00 in   Mostly Cloudy
7:53 PM 50.0 °F - 37.9 °F 63% 29.84 in 10.0 mi WNW 11.5 mph - N/A   Clear
8:53 PM 46.9 °F - 35.1 °F 63% 29.86 in 10.0 mi WNW 11.5 mph - N/A   Clear
9:53 PM 46.9 °F - 33.1 °F 59% 29.88 in 10.0 mi NW 20.7 mph - N/A   Clear
10:53 PM 43.0 °F 35.1 °F 33.1 °F 68% 29.90 in 10.0 mi NNW 17.3 mph - N/A   Clear
11:53 PM 39.9 °F 32.9 °F 32.0 °F 73% 29.92 in 10.0 mi NW 11.5 mph - N/A   Clear